Location: Mauna Kea VIS
(19.7591°N, 155.4561°W)
Time: 06:15:15
(UTC-10:00)

Tiangong - Visible Passes

Search period start: 07 December 2025 00:00
Search period end: 17 December 2025 00:00
Orbit: 385 x 397 km, 41.5° (Epoch: 06 December)

Date Brightness Start Highest point End Pass type
(mag) Time Alt. Az. Time Alt. Az. Time Alt. Az.
11 Dec 0.6 05:33:49 10° N 05:35:15 13° NNE 05:36:43 10° ENE visible
12 Dec -1.7 06:11:21 10° NW 06:14:31 59° NE 06:17:41 10° ESE visible
13 Dec -0.5 05:16:25 26° NNE 05:16:34 26° NE 05:19:20 10° E visible
14 Dec -1.5 05:53:53 23° WNW 05:55:32 43° SW 05:58:34 10° SSE visible
15 Dec -0.1 04:59:01 29° ESE 04:59:01 29° ESE 05:00:44 10° SE visible
15 Dec 0.9 19:46:13 10° SW 19:46:51 15° SW 19:46:51 15° SW visible
16 Dec 0.0 05:36:28 16° SW 05:36:28 16° SW 05:38:18 10° S visible
16 Dec -0.9 18:48:36 10° SSW 18:51:20 27° SE 18:51:55 25° ESE visible
